Location: Home
(42.5358°N, 72.7383°W)
Time: 06:35:31
(UTC-05:00)

Transit 4A - Pass Details

Date: 05 December 2021
Orbit: 863 x 981 km, 66.8° (Epoch: 26 January)

Event Time Altitude Azimuth Distance (km) Brightness Sun altitude
Exits shadow 05:25:45 20° 247° (WSW) 2,105 9.3 -17.8°
Drops below altitude 10° 05:29:28 10° 211° (SSW) 2,721 10.2 -17.1°
Sets 05:32:44 0° 195° (SSW) 3,667 11.0 -16.5°
